Flag for India

Past Weather in 22°43'19"N, 71°38'26"E, India — Yesterday and Last 2 Weeks

Now
90 °F

Passing clouds.


Feels Like: 103 °F
Forecast: 89 / 81 °F
Wind: 9 mph from Southwest

Location: Ahmadabad Airport

Current Time: Jul 4, 2020 at 9:58:40 pm

Latest Report: Jul 4, 2020 at 9:00 pm


Visibility: 2 mi

Pressure: 29.45 "Hg

Humidity: 67%

Dew Point: 77 °F

Location of 22°43'19"N, 71°38'26"ELocation

Past Weather in 22°43'19"N, 71°38'26"E — Graph

°F

22°43'19"N, 71°38'26"E Temperature Yesterday

Maximum temperature yesterday: 102 °F (at 3:00 pm)
Minimum temperature yesterday: 79 °F (at 6:00 pm)
Average temperature yesterday: 89 °F

High & Low Weather Summary for the Past Weeks

 TemperatureHumidityPressure
High102 °F (Jun 29, 3:30 pm)100% (Jul 4, 2:00 am)29.71 "Hg (Jul 4, 2:00 am)
Low79 °F (Jul 3, 6:00 pm)40% (Jun 28, 5:30 pm)29.36 "Hg (Jul 4, 4:30 pm)
Average90 °F69%29.59 "Hg
* Reported Jun 19 8:30 pm — Jul 4 8:30 pm, 22°43'19"N, 71°38'26"E. Weather by CustomWeather, © 2020

Note: Actual official high and low records may vary slightly from our data, if they occured in-between our weather recording intervals... More about our weather records

22°43'19"N, 71°38'26"E Weather History for the Previous 24 Hours

Scroll right to see more
 ConditionsComfort  
Time TempWeatherWind HumidityBarometerVisibility
8:30 pm
Sat, Jul 4
90 °FPassing clouds.7 mph71%29.45 "Hg2 mi
8:00 pm88 °FThunderstorms. Passing clouds.5 mph79%29.42 "Hg2 mi
7:30 pm91 °FThunderstorms. Scattered clouds.3 mph71%29.42 "Hg2 mi
6:30 pm95 °FPassing clouds.8 mph63%29.39 "Hg2 mi
5:30 pm97 °FPassing clouds.5 mph60%29.36 "Hg3 mi
5:00 pm97 °FScattered clouds.5 mph63%29.36 "Hg3 mi
4:30 pm99 °FScattered clouds.5 mph57%29.36 "Hg3 mi
4:00 pm99 °FScattered clouds.3 mph60%29.39 "Hg3 mi
3:30 pm97 °FScattered clouds.7 mph63%29.42 "Hg3 mi
3:00 pm97 °FScattered clouds.6 mph56%29.45 "Hg3 mi
2:30 pm97 °FScattered clouds.5 mph63%29.45 "Hg3 mi
2:00 pm97 °FScattered clouds.3 mph60%29.47 "Hg3 mi
1:30 pm97 °FScattered clouds.5 mph60%29.47 "Hg3 mi
1:00 pm95 °FPassing clouds.5 mph63%29.50 "Hg3 mi
12:30 pm95 °FPassing clouds.5 mph63%29.50 "Hg2 mi
12:00 pm95 °FPassing clouds.3 mph63%29.50 "Hg2 mi
11:30 am93 °FHaze.5 mph67%29.53 "Hg2 mi
11:00 am91 °FHaze.2 mph71%29.53 "Hg2 mi
10:30 am91 °FHaze.No wind75%29.53 "Hg2 mi
10:00 am90 °FHaze.3 mph75%29.53 "Hg2 mi
9:30 am88 °FFog.2 mph79%29.53 "Hg1 mi
9:00 am86 °FFog.2 mph84%29.53 "Hg1 mi
8:30 am86 °FFog.3 mph84%29.50 "Hg1 mi
8:00 am84 °FFog.5 mph89%29.50 "Hg1 mi
7:30 am84 °FFog.5 mph89%29.50 "Hg1 mi
7:00 am82 °FFog.3 mph94%29.50 "Hg2 mi
6:30 am82 °FFog.3 mph94%29.50 "Hg2 mi
6:00 am82 °FFog.3 mph94%29.50 "Hg2 mi
5:30 am82 °FFog.3 mph94%29.53 "Hg2 mi
5:00 am82 °FFog.3 mph94%29.53 "Hg2 mi
4:30 am82 °FFog.3 mph94%29.53 "Hg2 mi
4:00 am82 °FFog.3 mph94%29.53 "Hg2 mi
3:30 am82 °FFog.3 mph94%29.53 "Hg2 mi
3:00 am81 °FPartly cloudy.6 mph100%N/A2 mi
2:30 am81 °FPartly cloudy.7 mph100%N/A2 mi
2:00 am81 °FPartly cloudy.3 mph100%N/A2 mi
1:30 am82 °FPartly cloudy.2 mph94%N/A2 mi
1:00 am82 °FPartly cloudy.3 mph94%N/A2 mi
12:30 am82 °FPartly cloudy.3 mph94%N/A2 mi
12:00 am82 °FPartly cloudy.No wind94%29.53 "Hg2 mi
11:30 pm
Fri, Jul 3
82 °FFog.No wind94%29.53 "Hg2 mi
11:00 pm82 °FFog.3 mph89%29.56 "Hg2 mi
10:30 pm82 °FFog.6 mph89%29.56 "Hg2 mi
10:00 pm82 °FFog.5 mph89%29.56 "Hg2 mi
9:30 pm82 °FFog.7 mph89%29.56 "Hg2 mi
9:00 pm82 °FFog.7 mph89%29.56 "Hg2 mi
Weather by CustomWeather, © 2020

See weather overview